Plainview, TX

5:44 AM CST on February 28, 2017 (GMT -0600)
Hale County

Weather History for KPVW - April, 2014

Change the Weather History Date:

Sunday, April 13, 2014

  Actual Average Record
Temperature  
Mean Temperature 60 °F -  
Max Temperature 80 °F 72 °F 95 °F (1972)
Min Temperature 39 °F 43 °F 25 °F (1951)
Degree Days  
Heating Degree Days 6    
Growing Degree Days 10 (Base 50)    
Moisture  
Dew Point 33 °F    
Average Humidity 32    
Maximum Humidity 68    
Minimum Humidity 12    
Precipitation  
Precipitation 0.01 in - - ()
Sea Level Pressure  
Sea Level Pressure 29.67 in    
Wind  
Wind Speed 19 mph (WNW)    
Max Wind Speed 29 mph    
Max Gust Speed 34 mph    
Visibility 10 miles    
Events      
Averages and records for this station are not official NWS values.
T = Trace of Precipitation, MM = Missing Value Source: NWS Daily Summary

Daily Weather History Graph

Daily Weather History Graph

Search for Another Location

Airport or City:

Trip Planner

Search our weather history database for the weather conditions in past years. The results will help you decide how hot, cold, wet, or windy it might be!

Date:

Astronomy

Apr. 13, 2014 Rise Set
Actual Time 7:18 AM CDT 8:16 PM CDT
Civil Twilight 6:52 AM CDT 8:42 PM CDT
Nautical Twilight 6:22 AM CDT 9:13 PM CDT
Astronomical Twilight 5:50 AM CDT 9:44 PM CDT
Moon 6:59 PM CDT (4/13) 6:13 AM CDT (4/13)
Length of Visible Light 13h 50m
Length of Day
12h 58m
Waxing Gibbous, 97% of the Moon is Illuminated
Apr 13
Waxing Gibbous
Apr 15
Full
Apr 22
Last Quarter
Apr 29
New
May 6
First Quarter

Hourly Weather History & Observations

Time (CDT) Temp. Windchill Dew Point Humidity Pressure Visibility Wind Dir Wind Speed Gust Speed Precip Events Conditions
12:15 AM 75.2 °F - 37.4 °F 25% 29.68 in 5.0 mi SW 19.6 mph 27.6 mph N/A   Haze
12:35 AM 74.7 °F - 38.1 °F 27% 29.68 in 7.0 mi SW 19.6 mph 26.5 mph N/A   Clear
12:55 AM 72.5 °F - 37.4 °F 28% 29.68 in 7.0 mi SW 18.4 mph 24.2 mph N/A   Clear
1:15 AM 71.2 °F - 37.6 °F 29% 29.67 in 7.0 mi SW 18.4 mph 23.0 mph N/A   Clear
1:35 AM 70.3 °F - 37.9 °F 31% 29.66 in 10.0 mi SW 19.6 mph 25.3 mph N/A   Clear
1:55 AM 70.0 °F - 38.7 °F 32% 29.65 in 10.0 mi SW 19.6 mph 26.5 mph N/A   Clear
2:15 AM 70.0 °F - 39.4 °F 33% 29.65 in 10.0 mi SW 16.1 mph 21.9 mph N/A   Clear
2:35 AM 70.0 °F - 40.3 °F 34% 29.65 in 10.0 mi SW 17.3 mph 20.7 mph N/A   Clear
2:55 AM 70.0 °F - 40.3 °F 34% 29.64 in 10.0 mi SW 18.4 mph 26.5 mph N/A   Clear
3:15 AM 70.0 °F - 40.6 °F 34% 29.64 in 10.0 mi SW 16.1 mph 25.3 mph N/A   Clear
3:55 AM 70.0 °F - 41.7 °F 36% 29.63 in 10.0 mi SW 20.7 mph 26.5 mph N/A   Clear
4:15 AM 69.4 °F - 41.9 °F 37% 29.63 in 10.0 mi SW 20.7 mph 25.3 mph N/A   Clear
4:35 AM 67.5 °F - 41.0 °F 38% 29.62 in 10.0 mi SW 18.4 mph 24.2 mph N/A   Clear
5:15 AM 64.9 °F - 40.1 °F 40% 29.62 in 10.0 mi SW 16.1 mph 21.9 mph N/A   Clear
5:35 AM 63.1 °F - 39.6 °F 42% 29.62 in 10.0 mi SW 17.3 mph - N/A   Clear
5:55 AM 62.6 °F - 39.9 °F 43% 29.62 in 10.0 mi WSW 17.3 mph 23.0 mph N/A   Clear
6:15 AM 62.6 °F - 40.3 °F 44% 29.62 in 10.0 mi WSW 17.3 mph - N/A   Clear
6:35 AM 62.1 °F - 40.1 °F 44% 29.62 in 10.0 mi WSW 18.4 mph - N/A   Clear
6:55 AM 61.2 °F - 40.1 °F 46% 29.63 in 10.0 mi WSW 17.3 mph - N/A   Clear
7:15 AM 59.9 °F - 40.1 °F 48% 29.63 in 10.0 mi WSW 15.0 mph - N/A   Clear
7:35 AM 59.9 °F - 41.0 °F 50% 29.64 in 10.0 mi WSW 13.8 mph - N/A   Clear
7:55 AM 59.9 °F - 40.5 °F 49% 29.64 in 10.0 mi WSW 12.7 mph - N/A   Clear
8:15 AM 60.1 °F - 38.7 °F 45% 29.65 in 10.0 mi WSW 12.7 mph 18.4 mph N/A   Clear
8:35 AM 62.6 °F - 37.4 °F 39% 29.65 in 10.0 mi West 18.4 mph 24.2 mph N/A   Clear
8:55 AM 63.9 °F - 34.5 °F 34% 29.66 in 10.0 mi West 20.7 mph 27.6 mph N/A   Clear
9:15 AM 66.6 °F - 34.2 °F 30% 29.67 in 10.0 mi West 18.4 mph 25.3 mph N/A   Clear
9:35 AM 70.0 °F - 34.0 °F 27% 29.67 in 10.0 mi WSW 20.7 mph 26.5 mph N/A   Clear
9:55 AM 70.0 °F - 28.6 °F 21% 29.67 in 10.0 mi West 23.0 mph 33.4 mph N/A   Clear
10:15 AM 70.0 °F - 24.3 °F 18% 29.67 in 10.0 mi West 23.0 mph 31.1 mph N/A   Clear
10:35 AM 75.0 °F - 23.7 °F 15% 29.67 in 10.0 mi West 26.5 mph 34.5 mph N/A   Clear
10:55 AM 75.2 °F - 22.8 °F 14% 29.67 in 10.0 mi West 28.8 mph 33.4 mph N/A   Clear
11:15 AM 75.2 °F - 21.7 °F 14% 29.67 in 10.0 mi West 27.6 mph 34.5 mph N/A   Clear
11:35 AM 75.2 °F - 20.5 °F 13% 29.67 in 10.0 mi West 24.2 mph 32.2 mph N/A   Clear
11:55 AM 75.2 °F - 18.5 °F 12% 29.67 in 10.0 mi West 24.2 mph 32.2 mph N/A   Clear
12:15 PM 77.4 °F - 21.2 °F 12% 29.66 in 10.0 mi West 23.0 mph 27.6 mph N/A   Clear
12:35 PM 77.0 °F - 21.2 °F 12% 29.65 in 10.0 mi West 25.3 mph 32.2 mph N/A   Clear
12:55 PM 77.5 °F - 20.8 °F 12% 29.65 in 10.0 mi West 19.6 mph 28.8 mph N/A   Clear
1:15 PM 77.5 °F - 21.9 °F 13% 29.65 in 10.0 mi WNW 21.9 mph 28.8 mph N/A   Clear
1:35 PM 77.5 °F - 22.3 °F 13% 29.65 in 10.0 mi West 20.7 mph 27.6 mph N/A   Clear
1:55 PM 78.8 °F - 22.5 °F 12% 29.65 in 10.0 mi West 20.7 mph 29.9 mph N/A   Clear
2:15 PM 78.1 °F - 21.9 °F 12% 29.64 in 10.0 mi West 20.7 mph 25.3 mph N/A   Clear
2:35 PM 80.1 °F - 23.4 °F 12% 29.63 in 10.0 mi NW 13.8 mph 20.7 mph N/A   Clear
2:55 PM 80.1 °F - 23.7 °F 12% 29.64 in 10.0 mi WNW 13.8 mph 28.8 mph N/A   Clear
3:15 PM 79.7 °F - 23.9 °F 13% 29.63 in 10.0 mi NW 12.7 mph 27.6 mph N/A   Clear
3:35 PM 79.5 °F - 25.2 °F 13% 29.63 in 10.0 mi NW 17.3 mph 25.3 mph N/A   Clear
3:55 PM 78.1 °F - 25.3 °F 14% 29.63 in 10.0 mi WNW 12.7 mph 20.7 mph N/A   Scattered Clouds
4:15 PM 78.6 °F - 30.4 °F 17% 29.62 in 10.0 mi North 11.5 mph 20.7 mph N/A   Clear
4:35 PM 77.5 °F - 32.5 °F 19% 29.62 in 10.0 mi North 13.8 mph 20.7 mph N/A   Clear
4:55 PM 77.5 °F - 34.2 °F 21% 29.62 in 10.0 mi NNE 9.2 mph 12.7 mph N/A   Clear
5:15 PM 77.5 °F - 34.0 °F 21% 29.61 in 10.0 mi NNE 11.5 mph - N/A   Clear
5:35 PM 77.5 °F - 34.5 °F 21% 29.61 in 10.0 mi NE 11.5 mph - N/A   Clear
5:55 PM 76.5 °F - 34.2 °F 21% 29.60 in 10.0 mi NNE 10.4 mph - N/A   Clear
6:15 PM 77.4 °F - 35.1 °F 22% 29.61 in 10.0 mi ENE 12.7 mph - N/A   Clear
6:35 PM 75.2 °F - 36.1 °F 24% 29.62 in 10.0 mi NE 17.3 mph 21.9 mph N/A   Clear
6:55 PM 75.2 °F - 39.0 °F 27% 29.63 in 10.0 mi NE 17.3 mph - N/A   Clear
7:15 PM 70.0 °F - 37.9 °F 31% 29.64 in 10.0 mi NE 19.6 mph 23.0 mph 0.01 in   Clear
7:35 PM 64.9 °F - 36.0 °F 34% 29.66 in 10.0 mi NE 23.0 mph 27.6 mph 0.01 in   Clear
7:55 PM 60.8 °F - 34.5 °F 37% 29.67 in 10.0 mi NNE 19.6 mph 27.6 mph 0.01 in   Clear
8:15 PM 57.4 °F - 33.3 °F 40% 29.69 in 10.0 mi NNE 20.7 mph 28.8 mph N/A   Clear
8:35 PM 54.9 °F - 33.3 °F 44% 29.71 in 10.0 mi NNE 23.0 mph 29.9 mph N/A   Clear
8:55 PM 52.7 °F - 33.6 °F 48% 29.73 in 10.0 mi NNE 19.6 mph 33.4 mph N/A   Clear
9:15 PM 50.0 °F - 33.1 °F 52% 29.76 in 10.0 mi NNE 21.9 mph 28.8 mph N/A   Clear
9:35 PM 50.0 °F - 34.7 °F 56% 29.78 in 10.0 mi NNE 20.7 mph 25.3 mph N/A   Clear
9:55 PM 46.0 °F 37.6 °F 32.4 °F 59% 29.81 in 10.0 mi NNE 24.2 mph 27.6 mph N/A   Clear
10:15 PM 43.0 °F 33.5 °F 30.9 °F 62% 29.84 in 10.0 mi NNE 24.2 mph 28.8 mph N/A   Clear
10:35 PM 41.4 °F 32.4 °F 30.2 °F 65% 29.86 in 10.0 mi NNE 19.6 mph 26.5 mph N/A   Clear
10:55 PM 40.5 °F 31.2 °F 29.7 °F 65% 29.88 in 10.0 mi North 19.6 mph 26.5 mph N/A   Clear
11:15 PM 39.7 °F 30.0 °F 29.3 °F 66% 29.90 in 10.0 mi NNE 20.7 mph 32.2 mph N/A   Scattered Clouds
11:35 PM 39.7 °F 29.0 °F 29.7 °F 67% 29.92 in 10.0 mi NNE 25.3 mph 33.4 mph N/A   Overcast
11:55 PM 39.0 °F 28.5 °F 29.1 °F 68% 29.92 in 10.0 mi NNE 23.0 mph 31.1 mph N/A   Overcast